Wind_Speed
39 39 40 40 40 40 39 38 36 35 34 32 31 30 30 31 31 32 32 31 29 28 27 27 26 26 26 26 25 26 26 27 28 29 29 28 28 27 25 24 23 23 23
40 41 41 42 42 42 42 42 41 39 37 35 34 33 33 33 34 35 35 33 31 30 29 29 27 27 27 27 26 26 26 25 26 29 31 30 29 29 28 27 25 24 24
43 41 41 42 43 43 42 42 42 40 39 38 36 35 35 34 35 36 36 35 32 31 29 29 28 27 27 27 27 26 26 25 25 27 30 31 31 29 29 29 27 25 24
42 40 40 42 42 43 42 42 41 40 39 38 37 37 36 35 35 36 35 34 32 30 28 29 28 28 27 27 25 25 25 26 26 27 28 30 31 31 31 30 30 28 26
35 36 38 39 39 39 40 40 40 40 39 38 38 37 36 35 34 34 34 33 32 32 30 28 27 28 27 26 27 26 27 27 27 27 28 29 30 32 32 32 31 30 28
31 29 30 34 33 34 35 36 37 38 38 38 37 37 36 35 34 34 34 34 33 32 32 30 27 27 27 25 26 26 27 27 27 28 29 29 30 32 33 33 32 30 28
27 27 26 26 27 29 31 33 35 36 37 37 36 36 36 35 34 34 35 36 35 35 35 32 30 28 27 26 26 26 27 28 28 29 30 31 32 33 34 34 33 30 28
21 19 20 22 25 27 29 31 33 34 35 36 36 36 36 36 36 37 37 37 37 37 36 34 32 31 30 28 27 27 27 27 28 30 31 32 33 35 35 35 33 30 28
13 14 16 18 22 25 27 29 31 33 35 35 36 37 37 38 39 39 38 38 38 37 35 34 33 33 31 29 29 28 28 28 29 31 32 34 35 35 36 35 33 30 28
9 11 12 13 15 18 21 24 26 28 31 33 35 36 37 37 37 36 36 35 33 32 32 32 32 31 31 30 30 30 30 29 30 32 33 34 33 33 34 33 31 28 27
6 4 6 7 8 10 13 16 17 19 22 24 27 29 29 29 29 29 29 28 27 27 27 28 28 28 28 28 29 29 29 31 32 32 33 32 31 31 30 28 26 25 24
9 6 3 2 2 2 3 5 7 8 10 12 14 16 17 18 18 17 17 16 16 17 18 19 21 22 22 23 24 25 25 26 27 27 27 26 25 24 24 23 22 22 22
13 12 10 8 7 6 5 4 4 3 2 2 3 4 5 5 6 6 6 7 8 8 9 10 11 13 13 15 16 17 18 18 18 18 18 18 19 19 19 19 20 20 20
16 14 14 13 11 11 10 10 9 9 8 8 7 7 5 4 3 2 2 2 3 4 5 5 6 8 9 10 11 13 14 14 14 15 15 16 17 17 18 18 19 19 18
19 18 17 17 16 15 14 14 13 13 12 11 10 9 8 7 6 5 4 4 5 5 6 7 7 8 10 11 11 13 14 15 16 16 17 17 17 18 18 18 18 18 18
19 19 18 18 17 17 16 16 15 15 14 13 12 11 10 9 8 8 8 8 9 10 11 12 13 14 14 15 15 16 17 18 18 18 18 18 18 18 18 19 18 18 18
19 19 19 19 19 18 18 18 17 17 16 15 15 14 13 12 11 10 10 10 11 12 13 14 15 17 18 19 19 20 20 21 21 21 21 20 20 20 20 19 19 18 18
20 20 20 20 20 20 20 20 19 19 19 18 17 16 15 14 13 12 12 12 13 14 15 15 17 18 20 21 22 23 23 23 22 22 22 22 21 21 20 20 19 18 18
21 21 21 21 21 21 20 20 20 20 19 19 18 18 17 16 16 15 14 14 14 14 15 15 17 18 19 21 22 23 23 23 23 23 22 22 22 21 20 19 19 18 17
22 22 21 21 21 21 20 20 20 20 20 20 19 19 19 18 17 17 16 15 15 14 14 15 15 16 17 18 19 19 20 21 21 20 21 21 21 20 19 19 18 17 16
21 21 21 20 20 20 19 20 20 20 20 20 20 20 20 20 19 18 18 17 16 15 15 14 14 14 14 14 14 15 16 17 18 18 18 18 18 18 18 18 18 17 15
19 19 19 19 19 19 19 19 20 20 21 21 22 22 22 21 21 20 20 20 18 18 17 16 15 14 14 13 12 12 12 13 13 15 15 16 16 17 17 17 16 16 15
17 18 18 19 19 19 19 19 19 20 21 21 22 23 23 24 23 22 22 22 22 20 20 19 18 17 16 14 12 10 8 8 10 11 13 14 15 15 15 15 15 14 13
15 16 17 18 18 19 18 18 19 20 20 21 21 22 23 24 24 24 24 24 24 24 23 22 22 21 20 17 15 11 8 6 4 5 7 9 11 12 13 13 13 13 12
13 14 15 16 17 18 18 18 18 19 20 20 20 20 22 23 23 23 24 25 25 26 25 25 25 25 25 23 20 17 13 10 6 3 3 5 8 9 10 11 11 12 11
11 12 13 15 16 16 17 17 17 18 20 20 20 19 20 21 22 23 23 24 25 26 26 26 27 27 28 27 26 24 21 18 15 12 10 9 9 9 10 11 11 11 11
Wind_Direction
262 263 262 261 261 261 262 262 262 263 263 262 262 261 262 264 267 267 266 264 260 258 258 258 260 262 263 264 266 266 268 269 263 259 261 265 268 268 266 265 268 274 280
266 264 261 259 259 259 260 260 261 262 262 262 261 260 260 261 263 265 265 264 261 256 256 257 260 261 262 264 265 267 269 272 267 261 259 261 263 265 264 263 263 268 274
266 262 258 256 256 256 256 257 258 258 259 259 258 258 258 259 261 263 265 263 263 256 254 256 258 260 261 264 265 266 269 271 267 262 259 259 260 262 263 264 264 264 268
266 260 255 253 252 253 252 253 253 254 255 255 255 255 255 256 259 264 268 268 269 264 259 258 259 259 262 264 266 266 270 269 264 261 259 257 256 258 259 261 264 266 268
264 260 255 250 249 248 248 248 249 250 251 251 252 252 253 254 257 262 267 269 274 269 269 268 264 263 265 265 266 269 269 268 263 259 257 256 255 256 256 257 260 264 267
262 262 256 247 246 245 245 246 247 247 248 248 249 251 252 254 256 261 266 273 275 274 275 277 278 272 269 268 268 267 267 265 261 257 256 255 255 255 255 255 256 258 264
269 266 261 252 250 248 247 247 247 247 247 248 249 251 253 255 259 263 267 272 275 277 278 278 277 271 269 266 265 264 262 260 258 256 255 254 254 254 254 254 253 255 259
275 274 271 261 258 255 251 249 249 249 248 249 251 253 255 259 263 266 269 272 273 274 273 271 269 267 266 263 262 262 260 258 257 255 254 255 255 254 255 252 251 252 257
283 278 273 268 263 260 256 255 253 252 252 252 253 256 259 263 266 269 271 272 272 271 268 265 263 264 263 261 258 259 261 260 257 256 256 257 256 255 252 250 250 252 256
290 284 279 277 275 270 264 261 259 258 257 256 258 261 263 267 270 272 273 272 270 268 264 263 261 260 260 259 259 260 259 258 256 256 257 258 256 254 252 251 251 252 256
356 317 295 288 287 278 270 264 265 264 263 262 262 263 265 268 270 272 272 270 268 265 262 261 260 259 258 258 259 260 258 255 255 257 256 254 252 251 250 248 248 251 255
41 39 16 349 321 298 287 279 274 272 269 269 267 266 266 268 269 269 268 267 264 262 260 259 257 256 254 253 252 250 251 252 253 252 250 248 247 246 245 245 248 251 253
54 55 56 65 72 69 69 66 43 32 21 346 311 281 272 267 266 268 270 271 266 262 255 248 244 241 239 239 240 240 243 245 247 248 248 246 244 245 247 249 251 252 253
58 60 63 67 68 66 66 65 64 63 61 56 55 54 51 48 43 23 324 293 275 254 242 234 235 234 229 231 237 239 240 244 247 249 250 250 249 249 250 251 253 255 256
62 63 63 63 65 64 62 61 59 60 59 57 55 51 45 39 30 16 357 333 314 300 289 276 268 261 256 253 254 255 255 255 255 254 253 252 252 252 252 254 256 258 258
61 62 62 63 63 63 61 60 58 56 54 51 47 41 34 25 13 358 344 329 316 307 299 292 287 283 280 275 272 267 264 262 262 261 259 258 257 256 256 257 257 258 258
61 62 63 65 65 64 62 60 57 54 50 46 41 36 29 20 9 357 345 333 323 313 304 296 289 284 281 279 276 273 271 268 265 263 262 262 260 259 258 258 257 257 258
63 65 66 66 65 63 61 59 56 53 50 46 41 35 26 17 7 356 347 336 325 316 308 300 294 288 282 279 276 273 271 268 265 262 261 260 258 258 257 257 257 257 258
65 66 66 65 62 61 60 58 55 51 47 42 38 32 26 20 13 4 354 347 339 330 320 311 303 295 288 283 278 274 270 267 264 260 257 255 254 254 254 254 254 254 256
65 65 63 62 60 58 56 53 50 46 42 38 34 29 24 20 15 10 5 0 353 344 335 327 320 310 299 291 285 279 272 267 263 259 255 253 251 250 249 248 248 248 250
62 61 59 57 55 52 49 47 44 41 38 35 32 28 25 23 22 19 16 11 7 0 354 347 341 334 324 311 300 290 277 268 261 257 253 250 247 245 243 243 243 242 243
59 57 54 51 48 46 44 43 40 38 36 36 34 31 30 29 28 26 23 21 20 16 12 6 0 355 348 337 322 305 286 271 261 254 250 246 241 240 241 240 239 238 237
54 52 48 45 42 41 40 38 37 36 35 35 35 34 34 34 34 32 30 29 28 26 23 20 16 12 7 360 351 338 316 287 265 253 246 240 236 235 234 231 229 227 228
48 46 43 41 39 38 37 37 36 35 34 33 34 34 34 35 35 34 34 33 32 32 31 31 29 26 23 20 16 10 0 342 301 260 239 228 223 222 220 216 214 213 212
41 39 38 37 37 36 37 38 37 35 33 33 33 33 33 33 33 33 33 34 34 35 35 35 34 33 33 33 33 34 34 35 42 74 144 177 186 191 193 191 191 192 191
30 29 30 31 33 34 35 36 36 35 34 33 32 31 31 32 32 32 33 33 34 35 36 36 36 37 38 40 42 45 48 53 61 75 92 112 131 143 151 158 165 170 171
Height
5863 5864 5865 5865 5866 5866 5868 5870 5871 5873 5875 5877 5878 5878 5879 5878 5877 5877 5876 5877 5877 5877 5877 5877 5878 5878 5878 5878 5878 5878 5878 5878 5878 5878 5879 5880 5881 5882 5883 5884 5883 5882 5882
5851 5852 5853 5854 5855 5856 5857 5859 5861 5863 5865 5867 5868 5869 5870 5870 5870 5869 5867 5867 5868 5869 5869 5870 5870 5871 5871 5871 5872 5871 5871 5871 5871 5871 5872 5873 5875 5875 5876 5877 5879 5879 5877
5839 5840 5841 5842 5843 5845 5846 5848 5850 5852 5854 5856 5858 5860 5860 5861 5860 5858 5856 5856 5858 5859 5860 5862 5862 5863 5863 5863 5864 5865 5864 5864 5864 5864 5865 5866 5867 5869 5869 5870 5872 5873 5873
5826 5827 5829 5830 5831 5833 5835 5837 5840 5842 5844 5846 5848 5850 5851 5851 5851 5849 5848 5847 5848 5849 5851 5852 5853 5854 5855 5855 5856 5856 5857 5857 5857 5857 5858 5859 5860 5862 5863 5864 5864 5865 5866
5814 5816 5817 5819 5821 5823 5825 5827 5830 5832 5834 5836 5838 5840 5841 5842 5843 5842 5841 5840 5840 5839 5840 5842 5844 5845 5846 5847 5847 5848 5849 5849 5849 5850 5851 5852 5853 5854 5856 5857 5858 5858 5859
5805 5806 5807 5809 5811 5814 5816 5818 5821 5823 5825 5827 5829 5831 5832 5833 5834 5835 5834 5832 5832 5832 5833 5834 5835 5836 5837 5838 5839 5840 5841 5841 5841 5842 5843 5844 5846 5847 5848 5849 5850 5852 5852
5797 5798 5800 5802 5805 5807 5809 5811 5813 5815 5817 5818 5820 5822 5823 5825 5826 5827 5827 5826 5825 5826 5827 5827 5828 5828 5829 5830 5830 5831 5832 5832 5833 5834 5835 5836 5838 5839 5841 5842 5843 5844 5846
5793 5794 5795 5798 5800 5801 5802 5804 5806 5807 5809 5811 5812 5814 5815 5816 5817 5818 5818 5818 5818 5819 5819 5819 5820 5821 5821 5821 5822 5823 5823 5824 5825 5825 5826 5828 5829 5831 5832 5834 5835 5837 5838
5789 5790 5791 5793 5794 5794 5796 5797 5798 5800 5802 5803 5805 5806 5807 5808 5808 5808 5808 5809 5809 5809 5809 5810 5811 5812 5812 5813 5813 5814 5815 5816 5816 5817 5818 5819 5820 5822 5823 5825 5827 5829 5830
5787 5788 5788 5788 5789 5789 5790 5791 5792 5793 5794 5796 5797 5798 5799 5799 5799 5799 5798 5798 5799 5799 5799 5800 5801 5802 5803 5803 5805 5806 5806 5807 5808 5808 5809 5810 5811 5813 5814 5816 5818 5820 5822
5787 5786 5786 5786 5786 5786 5787 5787 5787 5788 5789 5789 5790 5791 5791 5791 5791 5791 5790 5790 5790 5790 5790 5791 5792 5793 5794 5795 5796 5797 5798 5799 5799 5800 5800 5801 5803 5804 5806 5808 5810 5813 5815
5789 5787 5787 5786 5786 5785 5785 5785 5785 5785 5785 5785 5785 5785 5785 5785 5785 5785 5784 5784 5784 5784 5784 5784 5785 5786 5787 5788 5788 5789 5790 5791 5791 5792 5793 5794 5795 5797 5799 5802 5804 5807 5808
5792 5790 5789 5788 5787 5787 5786 5786 5785 5785 5784 5784 5783 5783 5782 5782 5782 5781 5781 5780 5780 5780 5780 5780 5780 5781 5781 5782 5783 5783 5784 5785 5785 5786 5787 5788 5790 5792 5794 5796 5798 5800 5802
5796 5794 5793 5791 5790 5790 5789 5788 5787 5787 5786 5785 5784 5783 5783 5782 5781 5780 5780 5779 5779 5778 5778 5778 5777 5777 5778 5778 5778 5779 5779 5780 5781 5781 5783 5784 5785 5787 5789 5791 5793 5794 5795
5801 5799 5797 5795 5794 5793 5792 5791 5790 5789 5788 5787 5786 5785 5784 5783 5782 5781 5780 5779 5779 5778 5777 5776 5775 5775 5775 5775 5775 5775 5776 5776 5777 5778 5778 5780 5781 5783 5784 5786 5787 5788 5790
5806 5804 5802 5800 5799 5797 5796 5795 5794 5792 5791 5790 5788 5787 5786 5784 5783 5782 5780 5779 5778 5776 5775 5774 5773 5772 5771 5771 5771 5771 5772 5772 5773 5773 5774 5775 5776 5777 5779 5780 5781 5783 5784
5810 5808 5806 5805 5803 5802 5800 5799 5797 5795 5794 5792 5790 5789 5787 5785 5783 5781 5780 5778 5776 5774 5772 5771 5770 5768 5767 5767 5766 5766 5766 5766 5767 5768 5768 5769 5770 5772 5773 5775 5776 5777 5779
5815 5813 5811 5810 5808 5806 5804 5803 5801 5799 5797 5795 5793 5791 5788 5786 5784 5781 5779 5776 5774 5771 5769 5767 5765 5764 5762 5761 5760 5760 5759 5759 5760 5761 5762 5763 5764 5766 5767 5769 5771 5772 5774
5820 5818 5816 5815 5813 5811 5809 5807 5805 5803 5800 5798 5795 5793 5790 5787 5784 5780 5777 5774 5771 5768 5765 5763 5760 5758 5756 5754 5753 5752 5752 5752 5753 5754 5755 5757 5758 5759 5761 5763 5765 5767 5769
5825 5823 5821 5819 5817 5815 5813 5811 5809 5806 5803 5801 5798 5794 5791 5787 5784 5780 5777 5773 5770 5766 5763 5760 5756 5753 5750 5748 5746 5745 5744 5744 5745 5746 5748 5750 5752 5754 5756 5758 5760 5762 5764
5830 5828 5826 5824 5822 5820 5818 5815 5812 5810 5807 5803 5800 5796 5792 5789 5785 5781 5778 5774 5769 5765 5761 5758 5754 5750 5746 5743 5741 5739 5738 5738 5738 5740 5741 5743 5746 5748 5750 5752 5755 5757 5759
5835 5833 5831 5828 5826 5824 5821 5819 5816 5813 5809 5806 5802 5799 5795 5791 5787 5783 5779 5774 5770 5766 5761 5757 5753 5749 5745 5741 5738 5735 5733 5732 5733 5734 5736 5738 5740 5743 5745 5748 5750 5753 5755
5838 5836 5834 5832 5829 5827 5824 5822 5819 5816 5812 5809 5805 5802 5798 5793 5789 5785 5781 5777 5772 5768 5763 5758 5754 5749 5745 5740 5736 5732 5730 5729 5729 5729 5731 5733 5735 5738 5741 5743 5746 5749 5752
5841 5839 5837 5835 5832 5830 5827 5825 5822 5818 5815 5812 5809 5805 5801 5797 5793 5789 5784 5780 5775 5770 5766 5761 5756 5751 5746 5741 5736 5732 5729 5727 5726 5726 5726 5728 5731 5734 5737 5740 5743 5746 5750
5844 5842 5840 5838 5835 5833 5830 5827 5824 5821 5818 5815 5811 5808 5804 5800 5796 5792 5788 5783 5779 5774 5770 5765 5760 5754 5749 5743 5738 5733 5730 5727 5725 5724 5725 5726 5729 5732 5735 5738 5742 5745 5748
5846 5844 5842 5840 5838 5835 5833 5830 5827 5824 5821 5818 5814 5811 5807 5804 5800 5796 5792 5787 5783 5779 5774 5769 5764 5759 5754 5748 5743 5738 5733 5730 5728 5727 5727 5728 5730 5733 5736 5738 5742 5745 5748